QPF
0.00 0.00 0.00 0.00 0.00 0.00 0.00 0.00 0.00 0.02 0.03 0.03 0.04 0.03 0.04 0.03 0.03 0.03 0.03 0.03 0.03 0.02 0.02 0.02 0.02 0.01 0.01 0.01 0.01 0.02 0.02 0.03 0.03 0.03 0.02 0.02 0.02 0.04 0.04 0.03 0.03 0.02 0.02
0.00 0.00 0.00 0.00 0.00 0.00 0.00 0.00 0.00 0.00 0.01 0.02 0.03 0.03 0.04 0.04 0.04 0.03 0.03 0.04 0.03 0.03 0.02 0.02 0.02 0.02 0.01 0.01 0.01 0.01 0.01 0.02 0.03 0.03 0.02 0.01 0.01 0.01 0.01 0.02 0.02 0.02 0.02
0.00 0.00 0.00 0.00 0.00 0.00 0.00 0.00 0.00 0.00 0.00 0.01 0.01 0.02 0.02 0.02 0.02 0.02 0.02 0.02 0.02 0.02 0.02 0.02 0.02 0.02 0.02 0.01 0.01 0.01 0.01 0.02 0.03 0.04 0.03 0.02 0.01 0.01 0.01 0.01 0.01 0.01 0.01
0.00 0.00 0.00 0.00 0.00 0.00 0.00 0.00 0.00 0.00 0.00 0.00 0.01 0.01 0.01 0.01 0.01 0.01 0.01 0.01 0.01 0.02 0.03 0.03 0.02 0.02 0.02 0.02 0.02 0.02 0.02 0.02 0.02 0.03 0.03 0.03 0.03 0.02 0.01 0.01 0.02 0.02 0.02
0.00 0.00 0.00 0.00 0.00 0.00 0.00 0.00 0.00 0.00 0.00 0.00 0.01 0.01 0.01 0.01 0.01 0.01 0.01 0.01 0.01 0.02 0.02 0.03 0.03 0.02 0.02 0.02 0.02 0.02 0.02 0.02 0.02 0.03 0.03 0.04 0.03 0.03 0.02 0.01 0.01 0.02 0.03
0.00 0.00 0.00 0.00 0.00 0.00 0.00 0.00 0.00 0.00 0.00 0.00 0.00 0.00 0.01 0.01 0.01 0.01 0.01 0.02 0.02 0.02 0.02 0.02 0.02 0.02 0.02 0.02 0.02 0.02 0.02 0.02 0.03 0.05 0.06 0.06 0.05 0.05 0.05 0.03 0.01 0.01 0.02
0.00 0.00 0.00 0.00 0.00 0.00 0.00 0.00 0.00 0.00 0.00 0.00 0.00 0.00 0.00 0.01 0.01 0.01 0.01 0.01 0.01 0.01 0.01 0.01 0.01 0.01 0.01 0.01 0.01 0.02 0.01 0.02 0.04 0.05 0.06 0.06 0.06 0.06 0.06 0.05 0.03 0.02 0.02
0.00 0.00 0.00 0.00 0.00 0.00 0.00 0.00 0.00 0.00 0.00 0.00 0.00 0.00 0.00 0.00 0.00 0.01 0.01 0.01 0.01 0.01 0.01 0.01 0.01 0.01 0.01 0.01 0.01 0.02 0.02 0.01 0.02 0.03 0.03 0.04 0.05 0.05 0.06 0.06 0.06 0.04 0.03
0.01 0.01 0.00 0.00 0.00 0.00 0.00 0.00 0.00 0.00 0.00 0.00 0.00 0.00 0.00 0.00 0.00 0.00 0.01 0.02 0.02 0.01 0.01 0.02 0.02 0.02 0.02 0.01 0.01 0.01 0.01 0.02 0.02 0.02 0.04 0.05 0.04 0.04 0.04 0.03 0.04 0.04 0.04
0.01 0.00 0.00 0.00 0.00 0.00 0.00 0.00 0.00 0.00 0.00 0.00 0.00 0.00 0.00 0.00 0.00 0.00 0.01 0.02 0.02 0.02 0.02 0.02 0.02 0.02 0.02 0.02 0.02 0.01 0.01 0.01 0.02 0.02 0.03 0.03 0.03 0.03 0.03 0.03 0.03 0.03 0.04
0.01 0.00 0.00 0.00 0.00 0.00 0.00 0.00 0.00 0.00 0.00 0.00 0.00 0.00 0.01 0.01 0.01 0.01 0.01 0.02 0.03 0.04 0.04 0.03 0.03 0.02 0.02 0.02 0.02 0.02 0.02 0.02 0.01 0.01 0.01 0.01 0.02 0.02 0.02 0.03 0.03 0.03 0.03
0.00 0.00 0.00 0.00 0.00 0.00 0.00 0.00 0.00 0.00 0.00 0.00 0.00 0.00 0.01 0.01 0.01 0.02 0.02 0.02 0.04 0.05 0.05 0.04 0.04 0.03 0.03 0.03 0.03 0.03 0.03 0.03 0.02 0.01 0.01 0.01 0.01 0.02 0.02 0.03 0.03 0.03 0.02
0.00 0.00 0.00 0.00 0.00 0.00 0.00 0.00 0.00 0.00 0.00 0.00 0.00 0.00 0.01 0.01 0.01 0.01 0.02 0.02 0.02 0.03 0.04 0.05 0.05 0.04 0.04 0.03 0.04 0.03 0.03 0.02 0.02 0.02 0.02 0.02 0.02 0.02 0.03 0.03 0.03 0.02 0.02
0.00 0.00 0.00 0.00 0.00 0.00 0.00 0.00 0.00 0.00 0.00 0.00 0.00 0.00 0.00 0.01 0.01 0.01 0.01 0.02 0.02 0.02 0.02 0.03 0.04 0.04 0.04 0.04 0.03 0.03 0.03 0.02 0.02 0.03 0.03 0.03 0.02 0.02 0.03 0.03 0.02 0.02 0.02
0.00 0.00 0.00 0.00 0.00 0.00 0.00 0.00 0.00 0.00 0.00 0.00 0.01 0.01 0.00 0.00 0.00 0.00 0.01 0.01 0.01 0.02 0.02 0.02 0.03 0.02 0.03 0.03 0.02 0.02 0.02 0.02 0.03 0.04 0.05 0.04 0.03 0.02 0.02 0.03 0.02 0.02 0.02
0.01 0.01 0.01 0.00 0.00 0.00 0.00 0.00 0.00 0.00 0.00 0.00 0.01 0.01 0.01 0.00 0.00 0.00 0.01 0.01 0.01 0.01 0.02 0.02 0.03 0.02 0.02 0.03 0.03 0.02 0.02 0.02 0.03 0.04 0.04 0.03 0.03 0.03 0.03 0.03 0.02 0.02 0.02
0.01 0.01 0.01 0.01 0.00 0.00 0.00 0.00 0.00 0.00 0.00 0.01 0.01 0.01 0.01 0.01 0.01 0.01 0.01 0.01 0.01 0.02 0.02 0.03 0.03 0.03 0.03 0.03 0.03 0.03 0.02 0.02 0.03 0.03 0.02 0.03 0.03 0.03 0.03 0.02 0.02 0.02 0.02
0.01 0.01 0.01 0.01 0.01 0.01 0.00 0.00 0.00 0.00 0.01 0.01 0.01 0.01 0.01 0.01 0.01 0.01 0.02 0.02 0.02 0.02 0.02 0.02 0.03 0.03 0.03 0.03 0.03 0.03 0.02 0.03 0.03 0.03 0.03 0.03 0.03 0.02 0.02 0.02 0.02 0.02 0.02
0.01 0.02 0.01 0.01 0.01 0.01 0.01 0.01 0.01 0.01 0.01 0.01 0.01 0.01 0.01 0.01 0.01 0.01 0.02 0.03 0.02 0.02 0.02 0.02 0.02 0.02 0.02 0.02 0.02 0.02 0.02 0.03 0.04 0.04 0.03 0.03 0.03 0.02 0.02 0.02 0.02 0.02 0.02
0.01 0.02 0.02 0.01 0.01 0.01 0.01 0.01 0.01 0.01 0.01 0.01 0.01 0.01 0.01 0.01 0.01 0.01 0.01 0.02 0.02 0.02 0.02 0.02 0.02 0.02 0.01 0.02 0.02 0.02 0.02 0.02 0.03 0.02 0.02 0.02 0.02 0.02 0.02 0.02 0.02 0.02 0.02
0.02 0.02 0.02 0.02 0.02 0.01 0.02 0.02 0.02 0.02 0.02 0.01 0.01 0.01 0.01 0.01 0.01 0.01 0.01 0.01 0.02 0.02 0.02 0.02 0.01 0.01 0.01 0.01 0.01 0.02 0.02 0.02 0.02 0.02 0.02 0.01 0.01 0.01 0.01 0.01 0.01 0.01 0.01
0.02 0.02 0.03 0.03 0.02 0.02 0.02 0.02 0.02 0.03 0.02 0.02 0.02 0.02 0.01 0.01 0.01 0.01 0.01 0.01 0.01 0.01 0.01 0.01 0.01 0.01 0.01 0.01 0.01 0.01 0.01 0.01 0.01 0.01 0.01 0.01 0.01 0.01 0.01 0.01 0.01 0.01 0.01
0.02 0.02 0.03 0.03 0.02 0.02 0.02 0.02 0.02 0.03 0.03 0.03 0.03 0.02 0.02 0.02 0.01 0.01 0.01 0.01 0.01 0.01 0.01 0.01 0.01 0.01 0.01 0.01 0.01 0.01 0.01 0.01 0.01 0.01 0.01 0.01 0.01 0.01 0.01 0.00 0.00 0.00 0.01
0.03 0.03 0.03 0.03 0.02 0.02 0.02 0.02 0.03 0.03 0.03 0.03 0.03 0.03 0.02 0.02 0.02 0.02 0.02 0.01 0.01 0.01 0.01 0.01 0.01 0.01 0.01 0.00 0.00 0.00 0.00 0.01 0.01 0.01 0.01 0.01 0.01 0.01 0.01 0.01 0.00 0.00 0.00
0.03 0.03 0.03 0.03 0.03 0.03 0.03 0.03 0.03 0.03 0.03 0.02 0.02 0.03 0.03 0.03 0.03 0.02 0.02 0.02 0.02 0.02 0.01 0.01 0.01 0.01 0.01 0.01 0.01 0.01 0.01 0.01 0.01 0.01 0.01 0.01 0.01 0.01 0.01 0.01 0.01 0.01 0.00
0.03 0.03 0.03 0.03 0.03 0.03 0.04 0.04 0.04 0.04 0.03 0.03 0.03 0.02 0.03 0.03 0.03 0.02 0.02 0.03 0.03 0.02 0.02 0.01 0.01 0.01 0.01 0.01 0.01 0.01 0.01 0.01 0.01 0.01 0.01 0.01 0.01 0.01 0.01 0.01 0.01 0.01 0.01
MSLP
1004.91 1005.10 1005.32 1005.55 1005.80 1006.05 1006.33 1006.66 1007.06 1007.53 1008.04 1008.59 1009.13 1009.64 1010.09 1010.48 1010.82 1011.15 1011.51 1011.94 1012.47 1013.09 1013.82 1014.61 1015.44 1016.27 1017.06 1017.81 1018.51 1019.18 1019.85 1020.53 1021.23 1021.96 1022.69 1023.40 1024.04 1024.59 1025.03 1025.35 1025.57 1025.73 1025.84
1004.35 1004.51 1004.71 1004.93 1005.18 1005.44 1005.75 1006.12 1006.55 1007.05 1007.60 1008.16 1008.71 1009.21 1009.64 1010.01 1010.33 1010.65 1011.01 1011.45 1011.99 1012.65 1013.41 1014.24 1015.09 1015.94 1016.74 1017.49 1018.19 1018.86 1019.53 1020.21 1020.94 1021.69 1022.47 1023.23 1023.95 1024.59 1025.11 1025.54 1025.86 1026.10 1026.29
1003.79 1003.94 1004.14 1004.37 1004.62 1004.91 1005.24 1005.64 1006.11 1006.63 1007.19 1007.75 1008.29 1008.76 1009.17 1009.51 1009.82 1010.13 1010.49 1010.94 1011.51 1012.19 1012.97 1013.82 1014.69 1015.54 1016.34 1017.07 1017.76 1018.40 1019.05 1019.72 1020.44 1021.21 1022.01 1022.83 1023.61 1024.33 1024.97 1025.51 1025.96 1026.33 1026.63
1003.25 1003.42 1003.63 1003.87 1004.14 1004.45 1004.81 1005.23 1005.71 1006.24 1006.80 1007.35 1007.86 1008.31 1008.69 1009.01 1009.30 1009.61 1009.97 1010.43 1011.01 1011.71 1012.50 1013.35 1014.22 1015.07 1015.85 1016.57 1017.23 1017.85 1018.47 1019.12 1019.82 1020.58 1021.39 1022.23 1023.06 1023.87 1024.61 1025.28 1025.87 1026.38 1026.83
1002.79 1002.98 1003.20 1003.46 1003.75 1004.08 1004.46 1004.88 1005.37 1005.89 1006.43 1006.95 1007.43 1007.85 1008.21 1008.51 1008.79 1009.10 1009.46 1009.93 1010.51 1011.21 1012.00 1012.84 1013.70 1014.53 1015.30 1016.01 1016.65 1017.25 1017.85 1018.47 1019.14 1019.88 1020.67 1021.51 1022.38 1023.24 1024.07 1024.86 1025.59 1026.25 1026.85
1002.48 1002.68 1002.92 1003.19 1003.48 1003.81 1004.18 1004.60 1005.07 1005.56 1006.07 1006.56 1007.01 1007.40 1007.74 1008.03 1008.31 1008.61 1008.98 1009.44 1010.01 1010.70 1011.47 1012.30 1013.15 1013.96 1014.73 1015.43 1016.07 1016.67 1017.26 1017.86 1018.50 1019.20 1019.96 1020.78 1021.64 1022.53 1023.42 1024.30 1025.15 1025.96 1026.70
1002.38 1002.59 1002.82 1003.07 1003.35 1003.66 1004.01 1004.39 1004.82 1005.27 1005.74 1006.19 1006.61 1006.98 1007.30 1007.59 1007.87 1008.18 1008.54 1008.99 1009.55 1010.21 1010.95 1011.76 1012.59 1013.40 1014.17 1014.89 1015.55 1016.16 1016.75 1017.34 1017.95 1018.61 1019.32 1020.10 1020.93 1021.81 1022.73 1023.67 1024.62 1025.55 1026.43
1002.56 1002.74 1002.94 1003.16 1003.39 1003.65 1003.94 1004.27 1004.63 1005.03 1005.44 1005.85 1006.24 1006.60 1006.92 1007.22 1007.50 1007.81 1008.17 1008.61 1009.14 1009.76 1010.47 1011.25 1012.05 1012.86 1013.65 1014.39 1015.09 1015.73 1016.34 1016.94 1017.53 1018.15 1018.81 1019.52 1020.30 1021.15 1022.07 1023.05 1024.06 1025.08 1026.08
1003.03 1003.16 1003.30 1003.44 1003.60 1003.78 1003.99 1004.24 1004.53 1004.85 1005.21 1005.57 1005.94 1006.29 1006.61 1006.92 1007.22 1007.54 1007.90 1008.31 1008.81 1009.39 1010.06 1010.80 1011.58 1012.39 1013.19 1013.97 1014.71 1015.40 1016.05 1016.65 1017.24 1017.82 1018.43 1019.09 1019.81 1020.62 1021.51 1022.50 1023.55 1024.64 1025.72
1003.77 1003.82 1003.87 1003.91 1003.98 1004.05 1004.16 1004.31 1004.51 1004.75 1005.05 1005.37 1005.71 1006.06 1006.39 1006.72 1007.04 1007.37 1007.73 1008.13 1008.59 1009.13 1009.75 1010.44 1011.20 1012.00 1012.82 1013.63 1014.42 1015.16 1015.84 1016.47 1017.05 1017.62 1018.19 1018.79 1019.46 1020.22 1021.09 1022.07 1023.13 1024.26 1025.40
1004.73 1004.66 1004.59 1004.53 1004.47 1004.43 1004.43 1004.47 1004.57 1004.74 1004.97 1005.25 1005.57 1005.91 1006.27 1006.62 1006.97 1007.31 1007.67 1008.06 1008.50 1008.99 1009.56 1010.22 1010.95 1011.73 1012.55 1013.39 1014.21 1014.99 1015.71 1016.36 1016.96 1017.51 1018.06 1018.63 1019.26 1019.98 1020.82 1021.78 1022.85 1023.99 1025.16
1005.79 1005.60 1005.41 1005.23 1005.05 1004.89 1004.77 1004.71 1004.71 1004.80 1004.96 1005.20 1005.50 1005.85 1006.22 1006.60 1006.97 1007.34 1007.72 1008.10 1008.52 1008.98 1009.52 1010.13 1010.82 1011.59 1012.40 1013.24 1014.08 1014.89 1015.64 1016.32 1016.93 1017.49 1018.03 1018.59 1019.19 1019.89 1020.71 1021.65 1022.71 1023.85 1025.02
1006.87 1006.56 1006.25 1005.94 1005.65 1005.38 1005.16 1004.99 1004.91 1004.92 1005.03 1005.22 1005.50 1005.84 1006.23 1006.63 1007.04 1007.44 1007.84 1008.23 1008.65 1009.10 1009.60 1010.18 1010.84 1011.58 1012.38 1013.21 1014.05 1014.87 1015.64 1016.34 1016.97 1017.55 1018.10 1018.65 1019.25 1019.94 1020.75 1021.67 1022.71 1023.82 1024.97
1007.89 1007.47 1007.05 1006.64 1006.25 1005.89 1005.57 1005.32 1005.16 1005.10 1005.15 1005.30 1005.55 1005.89 1006.28 1006.71 1007.15 1007.58 1008.01 1008.43 1008.86 1009.31 1009.81 1010.37 1011.01 1011.72 1012.49 1013.31 1014.14 1014.96 1015.73 1016.45 1017.10 1017.69 1018.26 1018.83 1019.44 1020.13 1020.92 1021.83 1022.83 1023.90 1025.01
1008.79 1008.28 1007.78 1007.29 1006.82 1006.39 1006.00 1005.69 1005.46 1005.34 1005.33 1005.44 1005.66 1005.98 1006.37 1006.81 1007.28 1007.75 1008.22 1008.68 1009.15 1009.62 1010.13 1010.69 1011.31 1012.00 1012.75 1013.55 1014.36 1015.16 1015.94 1016.66 1017.33 1017.95 1018.54 1019.13 1019.76 1020.45 1021.23 1022.10 1023.06 1024.08 1025.12
1009.57 1008.99 1008.43 1007.88 1007.37 1006.89 1006.46 1006.09 1005.81 1005.64 1005.58 1005.64 1005.83 1006.12 1006.50 1006.95 1007.44 1007.95 1008.46 1008.97 1009.48 1010.00 1010.53 1011.11 1011.74 1012.42 1013.15 1013.92 1014.71 1015.51 1016.27 1017.00 1017.69 1018.33 1018.95 1019.56 1020.20 1020.89 1021.65 1022.49 1023.39 1024.33 1025.30
1010.20 1009.59 1008.99 1008.42 1007.88 1007.38 1006.92 1006.53 1006.22 1006.01 1005.91 1005.93 1006.07 1006.34 1006.70 1007.15 1007.65 1008.19 1008.74 1009.30 1009.86 1010.43 1011.01 1011.61 1012.25 1012.94 1013.66 1014.42 1015.20 1015.98 1016.74 1017.48 1018.18 1018.85 1019.49 1020.13 1020.78 1021.46 1022.19 1022.97 1023.80 1024.66 1025.53
1010.70 1010.06 1009.46 1008.89 1008.35 1007.85 1007.40 1007.00 1006.68 1006.45 1006.32 1006.31 1006.42 1006.65 1006.99 1007.42 1007.93 1008.48 1009.07 1009.68 1010.29 1010.91 1011.53 1012.18 1012.84 1013.54 1014.26 1015.02 1015.79 1016.56 1017.33 1018.08 1018.80 1019.49 1020.15 1020.81 1021.46 1022.13 1022.82 1023.54 1024.29 1025.06 1025.83
1011.01 1010.38 1009.79 1009.23 1008.73 1008.26 1007.84 1007.47 1007.17 1006.94 1006.80 1006.77 1006.86 1007.06 1007.37 1007.79 1008.29 1008.86 1009.47 1010.11 1010.77 1011.43 1012.10 1012.78 1013.47 1014.19 1014.92 1015.68 1016.45 1017.23 1018.00 1018.76 1019.50 1020.22 1020.90 1021.57 1022.22 1022.87 1023.51 1024.17 1024.84 1025.51 1026.19
1011.12 1010.50 1009.93 1009.42 1008.96 1008.55 1008.19 1007.88 1007.62 1007.43 1007.31 1007.29 1007.37 1007.55 1007.85 1008.25 1008.75 1009.32 1009.95 1010.61 1011.30 1012.00 1012.71 1013.41 1014.13 1014.86 1015.60 1016.36 1017.13 1017.92 1018.71 1019.48 1020.25 1020.98 1021.69 1022.37 1023.01 1023.64 1024.24 1024.83 1025.43 1026.01 1026.60
1010.97 1010.37 1009.84 1009.38 1008.99 1008.67 1008.39 1008.16 1007.98 1007.85 1007.79 1007.80 1007.90 1008.09 1008.39 1008.79 1009.29 1009.86 1010.50 1011.18 1011.89 1012.61 1013.34 1014.06 1014.79 1015.53 1016.27 1017.03 1017.81 1018.60 1019.40 1020.20 1020.98 1021.74 1022.47 1023.15 1023.80 1024.40 1024.96 1025.50 1026.02 1026.53 1027.04
1010.55 1009.96 1009.47 1009.08 1008.78 1008.55 1008.38 1008.26 1008.19 1008.15 1008.17 1008.24 1008.39 1008.62 1008.94 1009.36 1009.87 1010.46 1011.11 1011.80 1012.52 1013.26 1013.99 1014.73 1015.46 1016.19 1016.93 1017.69 1018.47 1019.26 1020.07 1020.88 1021.68 1022.46 1023.20 1023.89 1024.54 1025.12 1025.66 1026.15 1026.61 1027.05 1027.49
1009.86 1009.29 1008.85 1008.53 1008.32 1008.20 1008.15 1008.15 1008.20 1008.28 1008.41 1008.57 1008.80 1009.09 1009.47 1009.92 1010.46 1011.07 1011.74 1012.45 1013.19 1013.93 1014.67 1015.40 1016.13 1016.85 1017.58 1018.33 1019.09 1019.88 1020.69 1021.51 1022.32 1023.11 1023.87 1024.57 1025.21 1025.78 1026.29 1026.75 1027.16 1027.55 1027.94
1009.00 1008.44 1008.03 1007.78 1007.66 1007.64 1007.71 1007.85 1008.03 1008.24 1008.48 1008.76 1009.09 1009.47 1009.91 1010.43 1011.03 1011.68 1012.39 1013.12 1013.88 1014.63 1015.38 1016.10 1016.82 1017.52 1018.23 1018.95 1019.70 1020.48 1021.28 1022.09 1022.91 1023.70 1024.46 1025.17 1025.81 1026.37 1026.86 1027.29 1027.67 1028.02 1028.36
1008.10 1007.54 1007.17 1006.96 1006.91 1006.99 1007.17 1007.42 1007.72 1008.06 1008.43 1008.83 1009.26 1009.75 1010.29 1010.89 1011.55 1012.27 1013.02 1013.80 1014.58 1015.36 1016.11 1016.83 1017.53 1018.22 1018.91 1019.60 1020.32 1021.07 1021.85 1022.65 1023.46 1024.25 1025.01 1025.71 1026.34 1026.90 1027.37 1027.78 1028.13 1028.45 1028.75
1007.34 1006.78 1006.42 1006.25 1006.25 1006.40 1006.66 1007.00 1007.41 1007.85 1008.33 1008.84 1009.38 1009.97 1010.61 1011.30 1012.04 1012.83 1013.65 1014.48 1015.30 1016.10 1016.87 1017.59 1018.29 1018.96 1019.62 1020.28 1020.97 1021.69 1022.44 1023.22 1024.00 1024.78 1025.52 1026.21 1026.83 1027.37 1027.83 1028.22 1028.55 1028.84 1029.11
Thickness
5624 5627 5629 5630 5631 5632 5633 5634 5635 5636 5637 5637 5636 5636 5636 5637 5639 5640 5641 5642 5643 5645 5646 5646 5647 5648 5648 5647 5647 5646 5645 5645 5645 5643 5641 5642 5644 5645 5645 5645 5645 5645 5645
5613 5616 5619 5620 5621 5623 5624 5626 5627 5628 5629 5630 5629 5629 5629 5629 5630 5631 5633 5634 5636 5637 5638 5639 5639 5640 5640 5640 5639 5639 5637 5637 5638 5636 5633 5631 5632 5635 5637 5638 5638 5638 5638
5601 5605 5608 5610 5612 5613 5615 5618 5619 5621 5622 5622 5621 5620 5620 5620 5621 5623 5624 5626 5627 5628 5629 5630 5631 5632 5632 5631 5632 5632 5631 5629 5630 5631 5630 5627 5625 5625 5627 5629 5630 5630 5630
5592 5594 5596 5599 5601 5604 5606 5608 5610 5612 5613 5613 5613 5613 5613 5613 5614 5615 5616 5618 5619 5620 5621 5622 5623 5623 5624 5623 5624 5624 5624 5624 5622 5623 5625 5626 5626 5621 5618 5619 5621 5622 5622
5578 5581 5585 5588 5591 5593 5595 5598 5600 5602 5603 5605 5606 5605 5605 5606 5607 5608 5608 5609 5611 5612 5613 5613 5614 5615 5615 5615 5615 5616 5616 5616 5615 5615 5616 5617 5618 5619 5615 5611 5611 5611 5613
5564 5568 5571 5575 5577 5580 5583 5586 5589 5592 5594 5595 5597 5597 5597 5598 5599 5599 5600 5601 5601 5603 5604 5605 5606 5606 5607 5607 5607 5607 5607 5607 5607 5607 5608 5608 5609 5609 5609 5606 5604 5602 5603
5550 5553 5556 5560 5564 5567 5570 5574 5578 5581 5583 5585 5587 5588 5589 5590 5591 5592 5592 5592 5593 5594 5595 5596 5597 5598 5598 5598 5598 5597 5598 5598 5598 5598 5599 5600 5602 5602 5602 5600 5596 5594 5594
5535 5539 5543 5546 5550 5554 5558 5562 5566 5569 5572 5575 5577 5579 5580 5581 5583 5584 5585 5585 5586 5587 5587 5588 5589 5589 5589 5589 5589 5588 5588 5589 5589 5589 5589 5590 5592 5593 5593 5591 5588 5585 5584
5521 5525 5529 5533 5537 5541 5545 5550 5554 5558 5561 5564 5567 5569 5571 5573 5574 5576 5576 5577 5578 5579 5579 5579 5580 5580 5580 5580 5579 5579 5579 5579 5578 5578 5579 5579 5581 5583 5583 5583 5582 5579 5576
5505 5510 5515 5519 5524 5529 5533 5538 5542 5546 5550 5553 5556 5560 5562 5564 5565 5566 5567 5568 5569 5570 5570 5571 5571 5570 5570 5570 5570 5569 5569 5568 5568 5568 5568 5569 5570 5571 5572 5572 5573 5572 5570
5489 5494 5499 5505 5511 5517 5521 5525 5530 5534 5538 5541 5545 5548 5551 5553 5554 5555 5557 5558 5559 5560 5561 5561 5561 5561 5561 5560 5560 5559 5559 5558 5558 5558 5558 5558 5559 5560 5561 5562 5562 5561 5560
5474 5479 5484 5491 5496 5502 5507 5512 5516 5521 5525 5529 5533 5536 5539 5541 5543 5544 5546 5547 5549 5550 5551 5551 5552 5551 5551 5551 5550 5550 5549 5549 5548 5548 5548 5548 5549 5549 5550 5551 5550 5550 5549
5459 5463 5469 5475 5480 5487 5492 5498 5503 5508 5512 5517 5520 5524 5527 5530 5532 5534 5535 5537 5538 5539 5540 5541 5541 5541 5541 5540 5540 5540 5539 5539 5538 5538 5538 5538 5538 5538 5539 5539 5538 5538 5538
5442 5447 5453 5459 5465 5471 5478 5484 5489 5495 5500 5504 5508 5512 5516 5519 5521 5523 5524 5525 5527 5528 5529 5529 5529 5530 5530 5530 5529 5529 5528 5527 5527 5527 5527 5527 5528 5528 5528 5528 5527 5526 5525
5427 5433 5438 5444 5451 5458 5464 5470 5476 5481 5486 5491 5495 5499 5503 5506 5508 5510 5512 5513 5514 5515 5516 5517 5517 5517 5518 5518 5518 5518 5517 5516 5515 5516 5516 5516 5516 5517 5518 5518 5516 5515 5513
5412 5418 5424 5430 5437 5444 5451 5457 5462 5468 5472 5477 5481 5485 5489 5492 5495 5497 5498 5499 5501 5502 5503 5504 5505 5505 5506 5507 5507 5506 5505 5505 5504 5504 5504 5504 5504 5505 5506 5505 5505 5504 5503
5397 5403 5409 5416 5422 5429 5437 5443 5449 5455 5459 5463 5467 5471 5475 5478 5481 5483 5485 5486 5487 5489 5490 5491 5492 5492 5493 5494 5494 5494 5493 5493 5492 5492 5492 5492 5492 5492 5492 5491 5491 5491 5490
5384 5390 5397 5404 5410 5417 5425 5431 5437 5441 5446 5450 5454 5457 5461 5464 5467 5469 5471 5473 5474 5476 5477 5478 5479 5479 5480 5481 5481 5481 5480 5479 5479 5480 5480 5480 5479 5479 5479 5478 5477 5477 5477
5371 5378 5386 5393 5400 5406 5413 5419 5424 5428 5432 5437 5440 5444 5447 5450 5453 5455 5457 5459 5461 5462 5464 5465 5465 5466 5467 5468 5468 5467 5466 5466 5466 5467 5467 5467 5467 5467 5467 5466 5465 5464 5463
5361 5368 5375 5382 5389 5396 5402 5407 5411 5415 5419 5424 5427 5431 5434 5437 5439 5442 5444 5446 5448 5449 5450 5451 5452 5454 5454 5455 5455 5455 5455 5454 5453 5453 5454 5455 5455 5454 5454 5453 5452 5451 5450
5351 5358 5365 5371 5377 5384 5390 5395 5399 5402 5407 5411 5415 5418 5421 5424 5426 5429 5431 5433 5434 5436 5437 5437 5438 5440 5442 5443 5443 5444 5444 5443 5441 5440 5440 5441 5442 5442 5441 5440 5440 5439 5438
5341 5347 5354 5360 5366 5372 5378 5383 5387 5391 5395 5399 5402 5405 5407 5410 5413 5415 5417 5419 5421 5422 5422 5423 5424 5426 5428 5430 5431 5431 5432 5432 5430 5429 5428 5428 5428 5428 5428 5427 5427 5427 5425
5329 5336 5342 5349 5355 5360 5366 5371 5375 5380 5384 5387 5389 5391 5394 5396 5399 5402 5404 5406 5407 5409 5410 5411 5412 5413 5415 5416 5417 5418 5418 5418 5417 5417 5417 5416 5416 5415 5414 5414 5414 5413 5412
5318 5324 5331 5336 5342 5348 5354 5359 5364 5368 5372 5374 5376 5378 5381 5383 5385 5388 5391 5393 5394 5396 5397 5398 5399 5400 5401 5402 5403 5404 5405 5405 5404 5404 5404 5404 5403 5402 5402 5401 5400 5399 5399
5306 5313 5318 5324 5329 5336 5341 5347 5351 5356 5359 5361 5364 5366 5368 5370 5372 5374 5377 5379 5382 5384 5386 5387 5388 5389 5390 5391 5392 5393 5393 5393 5392 5392 5391 5390 5389 5389 5388 5387 5386 5385 5384
5295 5301 5307 5312 5318 5324 5329 5334 5339 5343 5346 5349 5352 5354 5357 5358 5360 5362 5363 5365 5369 5371 5373 5375 5376 5378 5379 5380 5381 5381 5382 5382 5382 5381 5380 5380 5379 5378 5377 5375 5374 5373 5372